Wind_Speed
35 38 39 38 36 35 36 39 40 40 40 41 41 42 43 44 42 38 40 39 37 36 35 32 32 33 32 26 18 19 23 23 20 18 18 18 18 17 17 18 16 14 14 14 14 14 14 14 13 13 12 12 12 14 16 15 13 12 14 15 16 16 17 18 20 21 22 21 22 24 26 26 25 26 27 27 25 22 19 16 14 14 14 13 13
37 38 37 35 34 34 37 40 41 40 40 41 41 41 42 44 44 43 43 42 39 38 38 35 33 33 33 30 22 18 22 25 24 21 19 19 19 19 18 18 17 16 15 14 14 14 14 14 14 13 12 12 12 14 14 12 11 11 13 14 14 15 16 17 19 20 19 20 21 24 26 26 25 26 27 27 25 22 19 15 13 13 14 14 14
39 38 35 33 33 33 37 41 41 40 40 41 40 39 41 44 45 45 45 44 43 40 39 37 35 35 34 31 27 21 21 26 27 25 23 21 20 20 19 19 18 17 16 15 15 14 14 13 13 12 11 12 12 12 11 10 9 11 12 12 12 14 15 17 18 18 18 19 22 24 27 26 25 26 28 27 24 22 18 15 14 14 15 15 16
39 38 35 33 33 34 37 40 39 39 40 41 41 41 42 44 44 43 43 44 46 44 40 37 35 36 36 32 29 25 22 25 28 28 27 25 22 20 20 20 19 18 16 15 14 14 14 13 12 11 11 11 11 10 9 9 9 9 9 10 11 13 14 16 17 17 18 20 22 24 26 26 25 26 28 28 25 21 18 15 14 15 16 17 17
39 37 35 34 34 35 37 39 38 38 40 41 42 43 44 44 45 44 44 45 46 45 42 38 36 36 36 33 29 28 25 26 28 28 28 28 25 23 22 22 20 18 16 14 14 15 14 13 11 10 10 10 10 9 8 8 8 7 8 9 11 13 15 15 16 17 18 20 22 23 25 26 25 25 28 30 27 22 18 16 15 16 18 19 19
37 36 34 34 35 36 37 38 38 39 41 42 44 45 45 46 46 46 46 48 48 47 45 40 37 35 34 32 28 28 27 27 28 29 29 28 26 25 24 24 21 18 16 15 15 15 13 11 9 7 7 9 9 9 8 8 7 6 7 10 12 14 15 15 16 17 18 19 21 21 23 25 25 25 28 30 28 24 19 17 17 17 19 20 20
35 34 34 34 35 37 38 39 40 41 42 44 45 46 46 46 47 48 50 50 50 50 48 43 39 35 32 31 28 27 28 28 27 28 28 28 26 25 24 25 23 19 17 16 16 15 12 10 8 6 6 7 8 8 8 7 6 6 8 11 13 15 16 16 17 18 18 19 20 20 21 24 25 25 28 29 29 26 22 18 17 18 19 20 19
33 33 34 35 36 38 39 40 41 43 44 45 46 46 46 47 48 51 52 52 51 51 51 47 40 34 32 31 28 28 29 30 30 29 29 28 26 25 25 25 23 21 19 17 17 15 12 10 9 7 6 7 8 8 7 8 7 7 10 11 13 16 18 17 17 18 18 19 20 20 20 23 24 25 27 29 29 29 26 22 19 18 18 18 18
33 33 34 35 37 39 40 41 42 44 45 46 47 47 47 48 50 52 52 53 53 53 53 48 39 34 34 33 30 29 29 30 32 32 30 29 27 25 25 25 24 23 21 19 17 16 14 11 10 8 7 7 9 9 8 9 8 9 10 12 13 16 20 18 16 17 18 19 20 19 19 21 23 23 25 27 29 30 30 28 24 21 19 18 17
34 34 35 37 38 40 41 43 45 45 46 46 47 48 49 50 52 52 53 54 55 55 55 50 43 38 36 34 33 32 31 32 34 36 33 30 28 26 26 26 25 24 23 21 18 18 17 13 10 8 8 8 9 9 9 11 10 10 11 12 14 17 21 20 17 16 19 20 20 18 17 19 21 22 23 26 28 30 31 30 29 27 24 21 19
36 36 37 38 40 42 44 46 47 47 47 47 48 49 50 52 53 54 54 55 56 56 57 55 49 43 38 35 35 35 35 35 37 39 38 35 31 28 27 27 26 25 24 23 21 21 20 17 14 11 9 9 10 10 11 12 12 12 13 13 15 18 21 20 17 17 19 20 20 16 15 17 19 20 21 24 27 29 31 31 31 30 29 26 23
38 38 40 41 43 44 45 46 47 47 48 48 49 50 51 52 53 55 56 57 58 59 60 59 53 47 41 36 35 36 36 37 40 42 41 39 36 30 28 29 28 27 26 25 24 23 22 21 19 16 12 11 11 11 12 14 14 14 14 15 17 19 20 19 18 17 18 19 19 15 14 15 17 18 19 21 24 27 30 31 31 31 30 29 27
41 41 43 44 45 45 46 46 47 48 49 50 50 51 52 53 54 56 57 59 61 62 63 62 57 50 44 39 36 36 36 37 40 43 43 41 40 34 28 30 30 28 27 27 26 24 24 24 24 21 17 13 13 13 13 14 15 16 16 17 18 19 20 19 18 17 17 18 17 15 13 14 16 17 18 19 22 25 28 30 31 31 30 30 29
43 44 46 47 47 47 47 48 49 50 51 51 52 53 54 55 56 57 59 61 63 65 65 62 58 52 47 42 38 36 36 37 38 41 43 42 43 39 31 30 31 30 29 29 28 26 25 25 26 25 22 17 14 14 14 15 16 16 17 18 20 20 20 19 18 18 17 16 17 16 14 13 14 16 17 18 20 22 25 28 30 31 31 30 29
44 46 48 49 49 49 49 49 49 50 52 53 54 55 56 57 57 59 61 62 64 66 65 61 57 53 48 43 40 37 37 38 36 37 42 44 44 43 35 31 33 32 31 31 29 28 26 26 26 26 25 21 17 16 16 17 17 18 18 19 21 21 21 19 18 18 18 17 16 16 15 13 13 14 16 17 18 20 23 26 29 30 30 30 29
45 47 49 50 50 50 50 50 50 51 53 54 55 57 58 58 59 60 62 64 66 66 64 60 57 52 47 43 40 38 38 38 35 34 41 45 45 44 40 35 34 34 34 33 31 29 28 27 26 27 26 24 20 19 18 19 20 20 20 20 21 22 21 19 18 18 18 18 17 17 17 15 13 13 14 16 17 19 21 24 27 29 29 30 29
48 50 51 51 51 51 51 52 53 53 54 55 57 59 60 61 62 63 64 66 67 66 62 59 55 50 46 42 39 37 37 36 34 34 37 44 45 45 43 39 36 36 35 34 32 30 30 28 27 27 26 25 23 21 20 20 21 22 22 21 21 22 22 20 19 19 19 19 18 18 18 17 15 13 14 15 17 18 19 21 25 28 28 28 29
53 54 53 53 52 52 53 54 55 56 56 58 59 61 63 64 66 66 66 68 68 65 62 57 51 47 44 41 38 36 36 35 34 34 35 41 45 44 45 41 37 36 36 35 33 32 31 29 28 27 26 26 25 23 21 21 21 22 22 22 22 22 22 21 21 20 20 20 20 20 19 19 17 16 15 15 16 17 18 19 23 27 28 27 28
57 56 55 54 53 53 54 56 57 58 58 59 61 63 65 67 68 68 69 70 68 64 61 56 49 45 42 39 36 34 35 34 33 33 35 40 43 43 44 42 37 35 37 37 34 33 32 30 29 27 27 27 27 25 23 22 22 23 24 24 23 22 23 24 23 22 21 21 21 21 21 21 19 18 17 15 16 17 17 17 20 25 26 26 27
60 58 57 55 54 55 56 57 58 59 60 61 63 65 66 68 69 70 70 70 67 62 59 55 49 43 38 36 35 34 34 34 33 32 34 40 42 41 42 43 39 36 37 38 36 35 33 31 30 28 28 28 28 26 25 24 24 24 24 24 23 23 23 25 25 24 23 23 23 22 23 22 21 20 19 17 16 16 17 17 19 23 25 25 26
62 61 59 58 57 57 57 58 58 59 60 61 63 65 66 68 69 70 70 68 65 61 58 54 49 43 37 34 35 35 33 35 35 32 33 39 41 41 42 43 41 38 38 38 36 35 34 32 31 29 30 29 28 27 26 26 27 26 26 25 25 24 24 25 25 25 25 25 24 23 23 24 23 22 20 19 17 16 18 19 20 23 25 25 25
64 63 62 60 58 57 57 57 58 59 60 61 63 65 65 66 68 68 66 65 63 60 56 51 47 43 38 36 35 35 34 36 36 31 32 37 39 40 41 41 41 39 38 37 36 35 34 33 31 32 32 31 28 27 26 28 29 29 29 28 27 26 26 26 26 25 26 27 26 25 25 25 25 24 22 20 18 17 18 20 21 23 25 25 25
65 63 62 59 57 55 56 57 58 59 59 60 61 63 64 64 64 64 63 62 61 58 53 47 43 40 38 38 37 36 36 35 31 29 30 35 37 38 39 39 39 38 37 37 37 35 34 33 33 34 34 32 30 28 27 30 32 32 32 31 30 28 27 27 27 27 27 28 27 26 26 27 26 26 24 22 20 18 18 20 21 23 25 25 25
64 62 60 58 56 56 57 59 58 58 58 58 59 60 61 61 60 60 60 60 59 56 50 44 40 36 35 36 36 37 37 33 28 26 29 34 36 36 36 36 36 36 36 37 38 36 34 34 35 36 35 34 33 30 29 32 34 35 35 34 33 32 30 29 29 28 29 29 29 28 28 28 28 27 26 24 22 20 19 19 21 23 25 26 25
62 60 58 57 56 57 58 58 56 55 55 54 55 56 56 57 57 56 57 58 56 52 45 40 37 33 31 32 33 37 37 34 30 27 29 33 34 33 33 33 34 35 35 36 37 36 35 36 37 38 38 37 34 32 32 34 36 37 37 37 36 34 33 31 30 30 30 31 31 30 30 29 28 28 28 27 25 23 20 20 21 23 26 26 25
60 58 57 57 56 56 55 54 52 52 51 50 50 51 52 54 54 54 54 55 53 47 40 37 36 33 30 28 33 37 37 34 30 27 29 32 32 33 34 34 34 35 34 34 35 35 36 38 39 39 38 36 34 34 35 36 37 39 40 39 37 35 34 33 32 31 31 31 32 32 31 30 29 29 30 29 28 26 23 21 21 23 26 27 26
56 55 54 53 52 51 51 50 49 49 48 47 46 47 49 51 51 51 51 51 48 43 38 35 34 31 26 25 32 37 36 32 28 27 29 31 32 32 32 32 33 34 35 35 35 35 37 38 38 37 35 33 34 37 38 39 41 42 42 41 39 36 34 33 33 32 32 32 33 34 34 31 30 30 31 32 30 28 26 24 23 23 26 27 27
51 50 49 49 48 48 47 46 46 46 45 43 42 44 47 49 49 48 47 46 44 40 38 34 29 25 20 22 31 34 34 30 27 29 31 32 32 31 29 28 30 33 35 35 34 35 36 36 35 34 33 34 37 40 41 42 43 43 43 41 39 38 36 34 34 33 33 34 37 38 36 34 32 32 32 33 32 31 29 27 26 26 27 28 28
46 46 46 45 45 45 45 44 43 43 42 40 39 42 45 47 47 46 44 42 40 38 36 30 23 17 14 20 27 30 30 29 29 33 35 33 31 31 30 28 29 32 33 32 33 34 35 35 34 33 34 36 37 39 40 41 41 41 41 41 39 38 37 35 34 34 35 38 40 40 39 37 35 34 34 34 34 33 31 30 30 29 30 31 30
45 44 44 43 43 43 43 42 41 40 40 38 37 39 42 44 44 43 39 37 36 34 31 24 15 9 11 18 24 27 29 29 32 36 37 33 30 30 30 30 31 32 33 32 32 32 34 34 34 35 37 38 38 38 38 39 40 39 40 40 39 38 37 36 37 39 40 41 41 40 39 38 37 37 37 36 36 35 33 32 33 32 32 34 34
44 43 43 42 43 43 42 41 39 38 38 37 36 36 39 41 41 39 35 32 31 29 24 16 8 7 12 17 21 24 27 29 31 33 33 31 29 29 28 29 31 32 33 33 33 33 34 35 36 38 38 38 38 37 37 38 39 39 39 40 40 39 39 40 42 44 44 42 40 39 40 39 39 39 39 38 37 37 35 34 35 35 35 36 36
44 43 43 43 42 42 41 40 38 37 37 36 35 34 36 38 38 36 32 29 27 24 18 10 7 11 15 17 20 22 26 28 28 30 31 29 29 30 30 31 33 33 32 33 33 34 35 36 38 39 38 37 35 34 35 37 37 38 39 41 43 43 43 45 45 44 43 42 40 40 40 40 41 41 40 40 39 39 38 37 37 37 38 39 38
45 44 43 43 42 41 41 40 38 36 36 36 34 33 33 34 36 34 30 26 24 21 15 11 12 15 17 18 21 23 24 26 27 29 31 31 31 32 34 36 37 34 32 31 32 33 34 34 35 36 35 35 35 35 37 38 38 40 43 45 45 44 43 43 42 40 40 41 42 42 41 41 41 42 41 41 41 41 40 39 38 38 39 40 40
46 45 44 43 43 42 41 40 38 36 36 35 34 33 31 31 33 32 29 24 22 20 16 16 18 19 20 21 23 25 26 26 25 27 30 31 33 35 37 38 37 34 32 31 31 33 34 34 33 33 33 35 37 38 40 41 42 43 45 45 44 43 41 40 40 40 42 45 46 45 44 44 44 45 45 45 44 42 42 41 40 40 42 43 42
47 46 45 44 43 42 42 41 39 37 35 35 34 33 31 29 30 30 28 23 21 21 20 21 23 23 23 23 25 27 29 29 27 28 31 31 33 36 39 40 38 37 35 33 33 35 36 36 36 35 34 36 40 42 42 43 44 45 45 45 46 44 41 40 42 45 48 50 48 47 48 50 50 49 49 48 47 44 43 42 42 43 45 46 46
46 45 44 43 43 42 42 41 39 37 35 35 34 33 31 29 28 28 28 24 21 22 23 24 27 28 27 26 26 28 30 31 31 32 33 34 35 37 39 41 42 41 40 39 38 38 39 39 38 38 39 39 41 44 46 47 47 48 49 48 48 46 43 43 46 48 49 51 51 52 55 55 53 52 51 52 51 47 45 45 45 45 47 48 48
44 44 43 42 42 42 42 41 40 38 36 35 34 33 32 30 28 27 27 25 21 22 24 26 28 30 31 30 29 30 32 33 34 34 34 35 37 39 41 43 45 43 42 42 41 37 37 38 39 40 41 42 43 44 47 48 49 49 49 48 47 46 44 45 47 48 49 52 54 56 57 58 57 55 54 53 52 49 48 48 48 50 52 52 50
43 43 43 43 43 43 42 41 40 39 37 36 35 34 33 32 30 27 26 25 23 21 24 27 29 31 33 34 34 34 35 36 37 37 35 35 37 40 42 44 45 45 44 44 41 38 36 38 40 44 45 45 46 45 45 47 49 50 50 49 49 49 48 48 49 50 51 54 58 60 62 62 60 56 51 48 48 49 50 52 54 55 56 56 54
44 44 44 44 44 44 43 42 41 40 38 37 37 35 34 33 32 29 27 26 24 23 23 27 31 33 33 35 36 37 38 39 40 40 39 37 37 40 43 44 46 47 47 45 44 42 40 39 40 45 50 51 50 48 46 45 47 48 49 50 50 51 52 52 54 55 55 58 61 63 64 63 59 53 49 48 50 53 56 59 60 60 59 58 57
46 45 46 46 46 45 44 43 42 42 41 39 39 37 36 35 34 32 30 28 26 24 23 24 29 34 37 37 38 39 40 41 42 42 42 41 40 41 43 44 45 46 47 47 48 46 44 42 42 43 49 56 56 55 52 50 49 49 50 51 52 53 53 54 56 58 59 60 60 60 59 58 56 55 53 54 56 60 63 64 64 63 62 61 61
48 47 47 47 47 46 45 44 43 43 42 41 41 40 39 37 36 35 33 31 29 27 25 24 26 31 37 40 41 41 42 43 44 44 44 43 42 42 43 44 45 46 46 48 50 50 47 46 45 43 45 52 56 57 56 55 52 51 52 54 54 55 56 56 58 60 60 59 58 56 55 56 57 58 60 61 63 66 69 69 67 65 65 65 64
50 49 49 48 47 47 46 45 45 44 44 43 43 42 42 40 39 37 36 35 33 31 29 27 27 28 32 38 42 44 45 45 46 46 47 46 45 44 43 44 46 47 48 49 50 51 50 50 51 49 47 49 53 54 54 55 54 53 54 56 55 56 58 58 59 61 60 59 59 58 59 61 63 64 66 67 69 71 73 73 71 69 68 67 67
52 52 51 50 49 48 48 47 46 46 46 45 45 45 44 44 42 41 39 38 37 35 34 32 31 29 30 33 38 43 46 48 49 49 49 49 48 47 47 47 47 47 48 50 52 53 54 54 56 56 54 54 56 56 56 57 57 57 60 61 60 59 59 59 60 60 60 62 63 64 66 67 68 69 71 73 75 76 76 75 71 68 66 66 68
55 55 54 53 51 49 49 48 48 47 47 47 47 47 46 45 45 44 42 41 41 40 38 37 36 34 33 33 34 38 43 47 50 52 52 52 52 51 51 52 52 51 50 50 52 54 56 57 60 62 62 62 62 61 60 60 61 62 64 65 65 62 61 61 60 61 64 67 68 68 68 70 71 73 75 77 78 77 74 71 68 66 65 66 68
56 56 55 54 52 51 49 49 49 48 48 49 48 48 48 47 46 46 46 45 44 44 43 42 40 39 38 37 36 37 39 43 47 51 54 55 56 56 56 55 56 57 57 55 54 55 57 58 61 65 68 68 68 67 67 66 66 67 69 70 69 67 66 65 65 66 70 73 73 72 72 73 73 73 73 73 72 71 69 68 68 69 70 71 72
56 55 54 53 53 52 51 51 50 49 49 49 49 49 49 48 48 48 48 48 48 47 47 46 45 44 43 42 41 40 40 41 44 48 51 55 58 59 60 60 60 60 62 62 61 59 60 60 62 65 68 71 72 73 74 74 73 73 73 72 71 71 71 71 72 73 75 76 75 74 73 72 72 72 72 71 71 71 71 71 73 74 75 75 75
55 54 53 52 52 52 52 52 52 51 50 49 49 49 49 49 50 50 50 50 50 50 50 49 49 48 47 46 45 45 44 44 44 46 48 52 55 59 61 63 64 64 64 66 66 66 65 65 65 66 68 71 74 75 76 77 76 75 74 72 71 72 72 73 73 74 75 75 74 73 72 73 74 75 76 76 77 77 77 77 77 78 78 77 76
55 53 52 51 51 51 51 52 52 52 51 51 50 50 50 50 50 51 51 51 52 52 52 52 52 51 51 50 50 49 48 48 47 48 49 50 52 55 59 62 65 66 67 68 69 70 70 70 70 70 70 71 72 73 74 75 74 74 74 73 72 72 73 72 72 73 74 75 75 76 76 78 80 81 82 83 84 84 83 82 81 80 80 79 79
55 54 54 53 53 52 52 52 52 52 52 52 52 51 51 51 52 52 52 52 53 53 54 54 54 54 54 54 54 53 53 52 51 51 52 52 53 54 57 60 63 66 69 70 71 72 73 74 74 74 74 74 73 73 73 73 73 73 73 74 76 77 77 77 77 77 78 79 80 80 81 83 85 87 88 89 88 87 86 85 84 83 82 82 83
57 57 57 56 55 54 54 54 53 53 53 52 52 53 53 53 53 54 54 54 55 55 55 56 56 57 57 57 57 57 57 56 56 55 55 55 56 57 58 59 61 64 68 71 73 75 75 76 77 78 78 78 77 77 77 76 75 74 74 75 77 79 80 81 82 83 84 85 86 86 86 87 88 89 90 90 89 88 87 86 86 85 85 86 87
58 58 57 56 56 55 55 55 55 54 54 53 53 53 54 54 55 55 56 56 57 57 58 58 59 59 60 60 61 61 61 61 60 60 60 59 60 60 61 62 62 64 66 69 73 76 78 79 80 81 81 81 81 81 80 80 80 79 78 77 79 80 81 81 82 84 84 85 87 88 88 88 89 89 90 90 89 88 88 88 87 87 88 89 90
Wind_Direction
309 312 313 312 310 311 314 317 318 317 317 318 318 317 318 321 322 326 332 333 329 327 326 322 317 312 303 294 274 252 259 267 271 276 280 282 287 287 278 272 274 277 277 276 273 271 272 274 274 272 269 268 272 279 285 288 288 291 299 305 312 318 321 323 329 334 337 339 345 350 351 350 350 353 355 354 351 346 341 340 340 339 337 335 330
309 311 311 310 309 310 315 318 317 317 316 316 316 316 317 321 322 325 331 335 333 328 324 321 318 315 307 296 282 257 253 262 267 269 274 276 281 285 281 271 269 274 276 276 276 273 273 275 276 276 274 273 273 277 281 279 279 288 298 306 315 319 320 325 331 335 337 340 346 352 354 355 356 360 0 358 356 354 352 352 355 354 352 349 343
307 309 309 307 306 308 314 318 316 316 316 316 315 313 314 318 321 323 327 332 333 330 323 318 314 311 308 298 284 266 253 260 266 267 268 271 275 281 284 276 267 269 276 277 276 275 275 274 276 278 275 273 271 270 268 264 272 287 297 307 315 316 319 327 333 334 334 338 344 351 356 358 2 6 6 4 1 0 1 5 8 7 4 360 354
304 306 305 304 305 306 312 316 315 315 316 316 314 312 312 315 317 319 323 327 330 331 325 319 314 308 304 298 285 272 259 258 266 267 266 266 270 276 282 280 268 264 271 274 274 275 275 275 276 276 274 269 265 258 250 254 271 285 296 305 308 309 317 328 334 333 331 335 340 348 356 1 5 9 10 9 6 4 7 10 11 9 5 359 353
302 303 303 303 304 304 308 312 313 314 315 315 314 312 312 313 314 316 319 322 327 329 326 320 316 310 305 298 286 275 264 257 261 266 265 264 265 270 277 280 271 261 263 266 269 273 273 274 274 273 270 268 264 254 249 256 267 276 287 292 295 304 316 329 336 336 332 333 338 347 358 4 9 11 12 12 10 8 9 10 7 3 359 355 350
300 301 302 303 304 303 305 308 309 311 312 313 314 313 312 313 314 315 317 320 324 327 326 321 316 312 309 301 287 277 271 261 259 264 265 262 261 265 270 276 272 258 253 258 263 267 269 269 267 267 267 269 268 259 254 252 252 257 266 276 289 302 314 327 336 338 336 335 339 349 0 7 11 12 11 11 12 11 11 11 7 0 357 355 353
299 301 302 303 304 304 305 306 306 308 310 312 314 312 312 312 314 315 316 319 322 325 325 322 317 311 308 303 290 277 275 269 263 263 264 262 260 261 263 268 266 254 246 253 258 259 259 257 255 263 274 275 271 265 252 235 229 236 250 270 289 302 312 323 334 339 338 336 341 350 2 9 12 13 13 14 15 14 14 14 9 2 358 357 357
299 301 302 303 302 303 304 304 305 307 309 312 313 312 311 312 313 314 316 318 320 322 324 323 318 309 302 302 292 277 274 273 268 262 261 261 261 259 259 260 258 248 242 248 253 249 245 246 250 266 281 278 275 271 244 214 215 228 246 272 290 304 312 317 328 338 338 336 340 350 2 10 13 14 16 19 20 20 20 18 12 5 0 358 359
298 300 301 302 302 302 302 303 304 306 308 311 312 312 311 311 312 314 315 317 318 319 322 322 316 306 298 295 290 278 271 271 270 266 260 259 259 257 255 255 251 243 240 244 247 241 236 240 247 262 277 277 277 273 240 213 218 233 251 275 292 307 314 313 321 335 338 335 337 346 1 9 13 16 18 19 20 22 24 23 19 12 6 3 2
297 299 300 300 301 302 302 303 303 305 308 311 312 311 311 310 311 312 314 315 316 317 319 319 313 306 298 288 283 278 271 265 266 267 264 258 255 252 250 249 246 240 239 241 241 237 234 237 243 255 270 273 276 272 245 224 227 241 257 277 293 308 315 312 312 327 336 336 335 343 359 8 12 16 18 18 19 21 23 25 23 20 15 10 7
296 298 299 300 300 301 302 303 303 304 307 309 311 310 310 310 310 311 312 313 314 315 317 317 313 308 301 288 278 274 271 266 262 264 265 262 255 248 244 243 242 238 239 240 239 237 238 241 246 253 263 268 269 267 251 237 235 244 259 275 291 306 314 312 307 318 332 336 336 342 358 7 9 13 16 17 18 20 22 23 23 23 21 17 14
295 297 299 300 300 301 302 302 303 304 306 308 309 309 308 308 308 309 310 311 312 313 315 316 313 308 302 292 278 268 267 267 262 260 261 262 257 247 240 240 239 236 237 239 238 238 241 246 251 254 258 262 263 262 253 245 243 247 259 272 287 301 311 312 307 313 328 334 336 342 356 4 6 8 12 13 15 17 19 20 21 21 22 21 20
293 296 298 299 300 301 302 302 302 303 304 306 307 308 307 307 307 308 309 310 311 312 314 314 311 307 301 293 281 268 263 263 261 258 257 258 257 251 240 239 240 236 236 239 239 240 244 248 252 254 256 258 259 259 254 248 247 249 257 270 282 295 307 311 308 311 322 330 335 341 351 0 2 2 4 7 9 11 14 16 17 18 20 21 22
292 295 296 298 299 301 301 301 302 302 304 305 306 306 306 305 306 307 308 309 310 311 312 311 309 305 300 294 284 271 262 260 260 257 253 251 254 253 245 238 239 238 236 238 240 242 245 249 251 253 254 256 257 257 256 250 249 251 256 267 277 287 301 308 309 310 316 322 329 337 346 352 356 357 357 359 1 4 7 10 12 14 16 17 20
293 294 296 297 298 299 301 301 302 303 303 304 304 305 305 306 307 307 308 308 310 311 311 309 307 304 300 294 285 273 261 258 260 258 249 246 249 252 249 239 236 238 237 237 240 242 246 248 250 252 252 255 256 257 258 254 250 252 256 264 272 280 293 304 308 309 312 316 319 328 339 346 349 352 352 353 354 356 0 5 7 9 12 13 15
295 296 296 296 297 298 300 300 301 302 302 303 303 304 305 306 307 307 307 308 310 311 309 307 305 302 298 291 283 273 262 258 261 260 248 243 246 250 249 241 235 237 238 237 239 242 245 247 249 250 251 252 255 256 257 258 256 255 257 262 267 274 286 298 306 308 309 313 314 318 329 338 341 344 346 347 348 349 352 359 2 4 6 9 10
298 299 298 297 296 296 298 299 299 300 300 302 303 303 304 305 305 306 307 309 311 310 308 306 304 301 295 288 280 271 263 258 259 262 252 242 243 247 248 243 236 235 238 239 240 241 243 246 247 249 250 249 252 254 256 259 261 262 261 262 265 270 278 290 301 306 307 309 311 313 319 328 333 335 338 340 342 343 345 351 357 360 1 4 6
300 301 300 298 296 296 297 298 299 299 300 302 303 303 304 304 305 306 308 310 311 310 308 306 303 299 293 287 280 269 260 256 256 260 255 243 240 244 246 243 234 232 237 239 240 242 242 244 246 249 251 249 250 252 255 258 263 266 266 265 265 268 272 280 291 300 303 305 309 311 314 318 324 328 329 331 334 337 340 345 352 355 356 359 1
302 302 302 301 299 299 300 300 300 300 301 302 303 304 305 305 306 307 309 310 311 310 308 306 303 296 289 285 280 268 256 252 253 256 254 244 240 242 244 243 235 230 236 238 239 242 243 243 246 250 252 250 249 251 255 260 266 268 267 265 266 269 271 275 283 291 296 300 303 308 311 313 316 320 323 324 327 329 333 340 348 351 352 354 355
302 302 302 303 303 303 302 301 300 300 301 303 304 305 306 307 307 308 310 310 310 309 308 306 301 293 283 278 276 267 254 248 248 251 249 242 240 241 242 242 237 231 234 236 237 240 242 242 244 249 253 251 248 249 255 261 266 268 268 267 268 271 273 275 280 284 289 295 298 302 306 309 310 313 316 319 321 323 325 331 341 346 347 349 350
300 302 302 302 303 304 303 302 301 301 303 305 305 306 307 307 308 309 310 311 310 310 309 305 300 290 277 267 265 262 253 245 245 247 244 239 239 241 240 239 238 234 234 236 236 239 241 241 243 247 252 251 248 249 255 261 265 265 265 267 269 270 273 277 280 281 284 289 293 296 300 304 307 308 309 312 316 319 320 320 329 339 342 344 345
298 300 300 301 302 303 303 303 303 304 305 306 306 306 306 307 308 309 311 311 310 310 309 304 296 287 273 258 251 251 248 243 244 247 241 235 237 240 239 238 238 237 236 236 236 238 239 241 243 246 250 251 249 250 256 261 263 263 262 263 266 268 272 276 279 281 283 285 289 292 295 299 303 305 305 306 310 315 318 316 317 327 335 338 340
297 298 298 299 301 302 304 304 304 305 305 305 304 304 305 307 308 311 312 312 311 311 309 302 293 285 273 256 242 237 238 238 243 248 239 232 234 237 238 239 238 238 238 237 236 237 238 240 241 245 250 252 249 249 256 260 263 265 265 264 263 265 271 274 277 281 284 285 286 289 291 294 299 303 301 301 304 308 314 316 312 317 326 332 335
295 296 297 298 299 300 302 304 303 303 304 303 304 304 306 308 310 313 314 313 313 312 308 301 292 285 277 262 239 228 228 227 233 242 235 229 231 234 237 240 240 239 239 238 238 238 238 239 241 245 250 251 248 249 255 259 262 265 268 269 266 264 268 272 275 279 283 285 286 287 288 291 296 300 299 297 299 304 310 314 312 312 318 326 331
294 294 295 296 298 299 300 301 302 302 303 303 304 306 308 310 312 315 315 314 313 312 308 303 297 289 281 264 236 223 223 222 224 230 227 225 227 232 238 243 242 240 240 241 242 241 240 239 241 244 248 251 250 252 256 259 263 266 270 271 269 266 266 270 274 277 280 284 286 285 284 287 293 297 298 295 294 299 305 310 311 310 313 320 327
292 292 294 295 297 298 298 300 301 301 302 304 305 307 309 311 314 317 316 315 314 313 310 307 301 294 284 259 228 217 218 219 221 223 220 220 223 229 236 240 241 239 239 241 242 243 242 241 241 244 250 254 255 256 258 261 265 268 270 271 269 266 265 269 273 275 279 283 285 284 281 284 289 293 295 295 293 295 299 304 307 308 310 315 321
291 292 294 295 296 297 298 299 300 300 302 304 306 307 309 312 316 318 318 316 316 315 314 311 303 294 281 247 219 213 215 217 218 216 214 216 220 226 233 239 242 240 238 239 241 243 244 245 246 249 253 255 257 259 261 263 265 266 268 269 267 264 265 269 272 275 279 282 284 283 279 280 284 288 292 293 293 293 295 299 302 303 306 310 315
293 294 295 295 296 297 298 299 300 300 301 304 306 308 311 314 317 320 320 318 318 318 317 314 306 294 271 230 212 211 213 215 215 212 210 214 219 222 226 233 240 241 239 239 241 245 247 248 250 251 252 254 256 258 260 261 262 264 266 267 266 265 267 270 273 276 279 281 284 283 279 278 280 284 288 290 291 292 294 297 298 300 302 305 309
294 295 295 296 297 297 299 300 299 299 301 303 306 309 312 315 319 322 322 319 320 320 318 316 310 292 250 216 209 209 211 213 213 211 211 215 221 222 223 226 235 242 243 242 244 246 248 249 249 247 247 249 252 255 258 260 263 266 267 268 267 266 268 272 274 276 277 280 283 281 277 276 278 280 283 286 289 292 294 295 295 298 300 301 304
294 294 295 296 297 298 299 299 299 298 299 302 305 309 313 316 320 323 322 319 318 318 317 317 310 276 223 209 209 211 211 212 216 217 214 216 220 223 225 228 233 241 246 247 249 248 248 248 248 245 244 246 250 256 261 266 269 271 271 273 273 273 275 275 273 273 276 279 280 277 275 276 277 278 280 283 287 290 293 293 294 297 301 303 302
293 294 296 297 298 299 299 299 297 296 297 300 304 309 313 316 320 323 322 317 314 311 311 311 293 224 205 210 215 216 215 215 221 223 218 217 221 225 229 233 235 240 245 248 251 252 250 249 248 249 251 254 258 263 268 271 274 277 277 277 278 277 276 274 272 274 276 277 276 274 275 277 277 277 278 280 284 288 290 290 292 297 302 304 302
295 296 297 298 298 299 299 298 296 294 295 298 302 307 311 315 319 323 322 315 308 303 298 284 240 208 208 218 222 220 218 218 221 221 216 218 226 230 231 233 232 234 240 244 247 249 250 249 250 252 256 260 262 265 268 269 272 276 275 275 275 274 274 274 275 277 277 275 275 276 276 276 276 276 277 279 282 284 287 288 290 295 301 303 300
296 297 297 298 298 298 297 296 295 293 293 295 299 303 309 314 318 322 322 311 300 293 275 243 218 211 215 223 223 219 219 221 224 225 222 222 229 232 231 234 235 235 238 243 246 249 251 252 253 252 252 255 258 260 263 265 267 269 271 273 275 276 278 278 279 280 277 275 275 276 276 276 276 275 276 280 282 282 285 288 289 293 299 301 298
296 297 297 296 296 296 295 294 292 291 290 292 296 300 305 311 316 320 321 309 292 280 257 229 217 215 218 225 225 221 220 222 228 235 235 233 234 233 230 233 238 239 239 244 247 250 252 254 255 254 251 252 255 258 261 262 263 265 268 272 275 278 280 280 278 276 274 274 275 275 274 275 277 277 277 279 282 282 285 288 290 292 296 297 296
296 296 295 294 293 292 291 290 289 288 288 289 293 297 302 307 312 316 319 310 287 271 252 231 221 220 220 224 227 226 223 221 226 236 241 242 240 237 232 230 234 236 236 238 240 242 246 250 253 254 253 251 252 255 257 260 263 265 266 269 274 278 280 276 271 268 268 270 272 272 273 275 277 278 278 279 281 282 284 286 289 291 294 293 292
297 296 295 293 291 290 288 288 287 286 285 285 289 294 298 302 307 310 315 312 290 267 252 236 227 225 225 225 227 229 227 225 227 233 239 242 241 239 236 235 237 239 238 237 239 243 247 250 252 254 254 253 254 255 258 262 265 267 268 271 274 277 277 273 271 270 269 270 270 270 273 275 278 280 281 281 282 282 282 284 286 288 292 292 291
298 298 297 295 292 289 287 286 285 284 282 282 284 289 293 296 301 305 309 311 299 272 253 241 233 230 229 228 228 230 229 229 230 233 238 243 244 241 239 239 241 243 242 239 240 247 256 260 260 261 262 262 262 262 263 264 266 268 270 271 273 274 274 273 273 274 274 273 272 273 276 279 282 284 283 282 282 282 282 284 285 286 288 290 291
299 299 298 296 294 291 288 285 283 282 280 279 280 284 288 291 295 299 301 305 304 285 260 245 238 234 233 232 231 232 232 232 233 234 238 244 246 243 240 240 241 243 243 240 236 240 251 257 259 260 261 261 261 261 262 263 266 269 270 270 270 271 271 270 270 270 270 272 274 277 280 282 284 284 282 279 278 280 282 284 286 287 287 289 292
299 299 297 296 295 293 290 286 282 281 279 277 277 279 282 286 289 292 294 296 299 295 276 254 243 238 237 236 235 235 235 235 235 236 238 242 244 243 240 238 239 241 242 240 236 236 242 247 250 253 253 254 255 253 254 259 263 263 263 265 266 268 268 267 267 268 270 273 277 280 282 282 282 281 278 275 275 279 283 285 287 288 289 290 292
298 297 296 295 293 292 290 287 282 280 278 277 276 276 278 281 284 287 289 290 291 292 287 271 253 244 241 240 240 241 240 239 239 240 242 244 245 245 242 239 239 239 240 240 238 239 241 242 247 251 249 249 250 249 251 260 265 262 261 263 266 268 269 269 270 272 274 276 276 277 277 276 277 277 276 276 277 281 285 287 288 289 290 292 293
296 295 294 293 292 290 289 286 283 280 278 277 276 276 276 277 279 281 284 286 286 286 286 281 269 255 247 244 243 244 245 244 244 244 245 247 248 247 246 244 242 241 240 241 242 243 242 240 243 249 247 245 247 248 251 259 264 264 264 267 269 270 270 270 272 273 273 272 271 271 270 269 271 273 274 277 279 283 286 288 288 289 290 291 291
294 294 293 292 291 289 287 286 284 281 280 279 277 277 276 276 277 277 279 281 282 281 280 280 277 269 259 251 247 246 247 247 248 247 247 248 248 249 247 244 244 245 244 243 244 246 244 239 238 243 243 241 243 246 249 253 257 259 262 265 268 269 270 271 272 272 270 268 267 266 266 266 268 271 274 276 279 282 284 286 287 287 288 288 289
295 294 293 291 290 288 287 286 284 283 282 281 279 278 277 276 276 276 276 277 278 279 278 276 275 273 269 262 256 252 250 249 249 249 249 248 248 247 245 242 242 243 244 244 245 247 246 241 237 239 243 243 244 247 249 252 255 257 259 262 265 268 269 270 269 267 265 265 265 266 267 268 270 271 273 275 277 280 281 283 284 284 284 284 285
295 295 294 293 290 288 286 285 285 284 283 282 281 279 277 276 276 275 275 275 276 276 276 276 274 272 270 267 264 260 257 255 253 251 251 250 249 248 246 244 242 241 243 244 244 244 245 242 238 238 243 247 250 252 253 255 257 259 260 261 263 264 266 266 266 264 264 265 266 268 269 271 273 275 276 277 278 280 281 281 282 281 280 280 281
295 295 295 294 292 289 287 286 285 284 284 283 282 280 278 276 275 275 275 275 275 275 275 275 274 273 272 269 266 263 261 259 258 256 254 252 251 250 248 247 244 242 242 243 243 243 243 243 241 240 243 248 252 254 255 257 258 260 261 262 262 262 262 262 263 263 264 266 268 269 270 273 275 277 278 278 279 280 280 280 279 280 280 280 281
295 295 294 294 293 291 288 287 286 285 284 283 282 280 279 277 276 276 275 275 275 275 275 275 274 273 273 272 270 267 264 261 259 259 257 256 254 253 251 249 248 246 244 244 244 244 243 243 243 242 244 247 250 253 255 256 257 259 260 262 262 261 260 261 262 263 264 265 267 269 270 271 273 273 274 275 276 276 277 278 278 279 280 281 281
294 294 294 294 293 292 291 289 288 287 285 284 283 281 279 278 277 277 277 276 276 276 276 276 275 275 274 273 272 270 268 265 262 260 258 257 256 255 254 252 251 250 249 247 247 247 247 246 245 244 244 246 248 251 252 254 256 257 258 259 259 259 260 261 262 263 264 265 266 267 268 269 270 271 272 273 274 275 276 277 278 279 279 279 279
293 293 293 293 293 293 293 291 289 288 287 286 285 284 282 280 279 278 277 277 277 276 276 276 276 276 275 274 273 272 270 268 266 264 261 259 256 255 254 253 253 253 252 251 250 250 250 249 248 247 247 247 247 249 250 252 254 255 255 256 256 256 257 259 261 262 264 266 267 268 268 269 269 270 271 273 274 275 276 277 278 278 278 277 277
292 292 292 293 292 292 293 293 291 289 288 287 287 286 285 283 282 280 279 278 278 277 277 277 277 276 276 275 274 273 272 270 268 266 264 262 260 257 255 253 252 251 252 252 252 252 252 251 251 250 250 249 249 250 250 251 252 253 254 255 255 255 256 257 258 260 263 264 266 267 268 269 270 271 272 273 274 275 276 277 277 276 276 276 275
291 291 292 292 291 290 290 292 291 290 288 287 287 286 285 285 284 283 282 281 280 280 279 278 278 277 276 276 275 274 273 272 270 268 265 263 262 261 259 256 253 251 250 250 250 251 252 252 253 253 253 252 252 252 252 252 252 252 253 254 255 256 256 257 258 259 261 262 264 266 268 269 271 272 273 273 274 275 275 275 275 275 275 275 275
290 292 293 293 292 291 290 290 290 289 287 287 286 285 285 284 283 283 282 282 281 280 280 279 278 278 277 276 275 274 273 272 270 268 266 264 262 260 260 259 257 254 251 249 248 249 249 250 251 252 253 254 254 254 254 254 254 253 253 253 254 255 256 257 258 260 261 263 264 266 267 268 270 271 272 273 274 274 274 274 274 274 274 274 275
Height
10781 10780 10778 10776 10774 10772 10771 10770 10770 10769 10768 10767 10767 10766 10764 10763 10761 10759 10757 10755 10753 10752 10750 10747 10744 10741 10741 10742 10745 10745 10744 10744 10745 10745 10745 10745 10745 10745 10745 10746 10746 10745 10745 10745 10745 10745 10746 10746 10746 10746 10746 10746 10746 10746 10746 10747 10747 10747 10746 10745 10744 10743 10742 10741 10740 10738 10736 10734 10732 10729 10726 10723 10720 10717 10714 10711 10708 10705 10703 10701 10700 10699 10698 10697 10697
10778 10777 10775 10773 10772 10770 10769 10767 10766 10766 10765 10765 10764 10762 10760 10759 10757 10755 10754 10752 10751 10750 10748 10746 10743 10739 10738 10738 10740 10742 10741 10740 10741 10742 10742 10742 10742 10743 10743 10743 10744 10743 10743 10743 10743 10743 10743 10743 10744 10744 10744 10743 10743 10744 10744 10744 10745 10745 10744 10744 10743 10742 10741 10740 10738 10737 10735 10733 10730 10728 10725 10722 10719 10716 10713 10710 10707 10704 10702 10700 10699 10698 10697 10697 10696
10775 10774 10773 10771 10770 10769 10767 10765 10763 10762 10762 10761 10761 10759 10757 10755 10754 10752 10750 10749 10749 10748 10746 10744 10741 10737 10735 10735 10736 10738 10738 10737 10737 10738 10739 10740 10740 10740 10740 10740 10741 10742 10741 10742 10742 10741 10741 10741 10741 10742 10741 10741 10741 10741 10742 10742 10743 10743 10742 10742 10741 10741 10740 10738 10737 10735 10734 10732 10729 10726 10723 10721 10718 10715 10712 10709 10706 10703 10701 10700 10699 10698 10697 10696 10695
10771 10770 10769 10768 10768 10767 10766 10764 10761 10759 10758 10758 10757 10756 10754 10753 10751 10750 10748 10747 10746 10745 10743 10741 10739 10735 10733 10733 10733 10734 10735 10734 10734 10734 10735 10737 10738 10738 10738 10738 10738 10739 10739 10740 10740 10740 10739 10739 10739 10739 10739 10739 10739 10739 10739 10740 10740 10741 10740 10740 10740 10739 10738 10737 10735 10734 10732 10730 10728 10725 10723 10720 10717 10714 10711 10708 10705 10703 10701 10699 10698 10697 10697 10696 10694
10767 10766 10765 10765 10765 10765 10764 10762 10760 10758 10756 10755 10754 10752 10751 10749 10748 10747 10745 10744 10743 10742 10740 10738 10736 10733 10730 10730 10730 10730 10731 10732 10731 10731 10732 10734 10735 10736 10736 10736 10736 10736 10737 10737 10738 10738 10738 10737 10737 10737 10737 10737 10737 10737 10737 10738 10738 10738 10739 10739 10738 10737 10736 10735 10734 10732 10731 10729 10727 10724 10722 10719 10716 10713 10711 10708 10705 10702 10700 10699 10698 10697 10696 10695 10693
10764 10762 10762 10761 10761 10761 10761 10759 10758 10756 10754 10753 10751 10748 10746 10745 10743 10742 10741 10740 10739 10738 10737 10735 10733 10731 10728 10727 10727 10727 10728 10729 10729 10728 10729 10730 10732 10734 10734 10734 10734 10734 10734 10735 10735 10736 10736 10736 10735 10735 10735 10735 10735 10735 10735 10735 10736 10736 10737 10737 10737 10736 10735 10734 10732 10731 10729 10728 10726 10723 10721 10718 10715 10713 10710 10708 10705 10702 10700 10698 10697 10696 10695 10694 10692
10760 10759 10758 10758 10757 10757 10756 10756 10754 10753 10751 10749 10747 10745 10742 10741 10739 10738 10737 10736 10735 10734 10733 10732 10730 10728 10726 10724 10724 10724 10723 10725 10726 10726 10726 10727 10729 10731 10732 10732 10732 10732 10732 10732 10733 10734 10734 10734 10734 10733 10733 10733 10733 10733 10733 10733 10734 10734 10735 10735 10735 10734 10733 10732 10731 10730 10728 10726 10724 10722 10720 10717 10715 10712 10710 10707 10705 10702 10700 10698 10697 10696 10694 10693 10691
10757 10756 10755 10754 10754 10753 10752 10751 10750 10749 10747 10745 10744 10741 10739 10737 10735 10733 10732 10732 10731 10730 10729 10728 10726 10725 10723 10722 10722 10721 10720 10720 10722 10722 10723 10724 10726 10728 10728 10729 10729 10729 10729 10730 10731 10732 10732 10732 10732 10731 10731 10731 10731 10731 10731 10731 10732 10732 10733 10734 10733 10733 10732 10731 10729 10728 10726 10725 10723 10721 10719 10716 10714 10712 10710 10707 10705 10702 10700 10698 10696 10695 10693 10692 10690
10754 10753 10752 10751 10750 10750 10749 10747 10746 10745 10743 10741 10739 10737 10735 10733 10731 10729 10728 10727 10727 10726 10725 10725 10723 10721 10721 10720 10719 10718 10717 10716 10716 10718 10719 10721 10722 10723 10725 10725 10726 10726 10726 10727 10728 10729 10730 10730 10730 10730 10729 10729 10729 10729 10729 10729 10730 10730 10731 10732 10732 10731 10730 10729 10728 10726 10725 10723 10722 10720 10718 10715 10713 10711 10709 10707 10705 10703 10700 10698 10696 10694 10693 10691 10689
10751 10750 10749 10748 10747 10746 10745 10743 10742 10741 10739 10737 10734 10732 10730 10728 10726 10725 10723 10723 10722 10721 10721 10722 10720 10718 10717 10717 10715 10714 10714 10713 10712 10712 10714 10716 10717 10718 10720 10721 10722 10723 10723 10724 10725 10726 10727 10727 10727 10728 10728 10728 10728 10727 10727 10728 10728 10729 10729 10729 10729 10729 10728 10727 10726 10725 10723 10722 10720 10718 10716 10714 10712 10710 10708 10707 10705 10702 10700 10698 10696 10694 10692 10690 10688
10748 10747 10746 10744 10743 10742 10741 10739 10737 10736 10734 10732 10730 10728 10726 10724 10722 10720 10719 10718 10717 10716 10715 10716 10715 10713 10713 10712 10711 10710 10710 10710 10709 10708 10709 10711 10713 10714 10716 10717 10719 10719 10720 10721 10722 10723 10724 10725 10725 10725 10726 10726 10726 10726 10726 10726 10726 10727 10727 10727 10727 10727 10726 10725 10724 10723 10722 10720 10719 10717 10715 10713 10711 10710 10708 10706 10704 10702 10700 10698 10696 10694 10691 10689 10688
10744 10743 10742 10741 10739 10738 10737 10735 10733 10731 10730 10728 10727 10725 10723 10720 10718 10716 10714 10713 10712 10711 10709 10709 10709 10708 10707 10706 10706 10705 10705 10705 10704 10704 10705 10706 10708 10710 10712 10713 10714 10715 10716 10717 10719 10720 10721 10722 10722 10723 10723 10724 10724 10724 10724 10724 10724 10725 10725 10725 10725 10725 10725 10723 10722 10721 10720 10719 10717 10716 10714 10712 10710 10709 10707 10705 10703 10701 10699 10698 10696 10694 10691 10689 10687
10740 10739 10738 10737 10736 10734 10732 10731 10728 10727 10725 10724 10723 10721 10719 10717 10715 10712 10709 10707 10706 10705 10704 10702 10701 10701 10701 10700 10699 10699 10700 10700 10699 10699 10701 10702 10703 10705 10708 10709 10710 10712 10713 10714 10715 10717 10718 10719 10719 10720 10721 10722 10722 10722 10722 10722 10723 10723 10723 10723 10723 10723 10722 10722 10720 10719 10719 10717 10716 10714 10713 10711 10709 10707 10706 10704 10703 10701 10699 10697 10695 10693 10691 10689 10687
10736 10735 10734 10733 10732 10730 10729 10727 10725 10722 10720 10719 10718 10716 10715 10713 10710 10708 10705 10702 10700 10699 10698 10695 10694 10693 10694 10693 10692 10693 10693 10693 10693 10694 10696 10697 10697 10700 10704 10705 10706 10708 10709 10710 10712 10713 10714 10715 10716 10717 10718 10719 10719 10720 10720 10720 10720 10721 10721 10721 10721 10720 10720 10719 10718 10718 10717 10716 10714 10713 10711 10709 10708 10706 10705 10703 10702 10700 10698 10696 10695 10693 10691 10689 10687
10732 10731 10730 10729 10727 10726 10724 10722 10720 10718 10715 10713 10712 10711 10709 10707 10705 10703 10700 10697 10695 10693 10691 10689 10687 10686 10686 10686 10685 10686 10686 10686 10688 10689 10690 10691 10692 10694 10698 10701 10702 10703 10705 10706 10708 10709 10711 10712 10712 10714 10715 10716 10717 10717 10717 10718 10718 10718 10718 10718 10718 10718 10717 10717 10716 10715 10715 10714 10713 10711 10710 10708 10706 10705 10704 10702 10701 10699 10697 10696 10694 10692 10690 10689 10687
10728 10727 10726 10724 10723 10721 10719 10718 10716 10714 10711 10709 10707 10705 10703 10702 10700 10698 10695 10692 10689 10687 10684 10682 10680 10679 10679 10679 10678 10678 10678 10679 10682 10683 10683 10685 10687 10689 10692 10695 10698 10699 10701 10702 10703 10705 10707 10708 10709 10710 10711 10712 10713 10714 10715 10715 10715 10715 10715 10715 10715 10715 10715 10714 10714 10713 10712 10712 10710 10709 10708 10707 10705 10703 10702 10701 10699 10698 10696 10695 10693 10691 10690 10688 10686
10724 10723 10722 10720 10719 10717 10715 10713 10711 10709 10707 10704 10702 10699 10698 10696 10695 10693 10690 10687 10684 10680 10676 10674 10673 10672 10672 10671 10672 10672 10672 10674 10676 10676 10678 10680 10682 10684 10686 10690 10693 10695 10696 10698 10699 10701 10703 10704 10705 10706 10707 10709 10710 10711 10711 10712 10712 10712 10712 10712 10712 10712 10712 10712 10711 10711 10710 10709 10708 10707 10706 10705 10703 10702 10700 10699 10698 10696 10695 10693 10692 10690 10688 10687 10685
10718 10718 10716 10715 10714 10712 10710 10708 10706 10704 10701 10699 10695 10693 10691 10689 10687 10685 10683 10680 10677 10673 10669 10667 10666 10664 10664 10664 10666 10666 10666 10668 10670 10671 10672 10674 10676 10679 10681 10684 10688 10690 10692 10694 10695 10697 10699 10700 10701 10702 10704 10705 10706 10707 10708 10709 10709 10709 10709 10709 10709 10709 10709 10709 10708 10708 10707 10707 10706 10705 10704 10703 10701 10700 10699 10697 10696 10695 10693 10692 10690 10689 10687 10686 10684
10712 10711 10710 10709 10708 10706 10704 10702 10700 10698 10695 10693 10689 10687 10684 10681 10679 10678 10675 10672 10669 10666 10661 10659 10659 10658 10658 10658 10660 10661 10661 10662 10665 10665 10666 10668 10670 10673 10675 10678 10682 10686 10687 10689 10691 10693 10694 10696 10697 10698 10700 10701 10702 10703 10704 10705 10706 10706 10706 10706 10706 10706 10706 10706 10706 10705 10705 10704 10703 10702 10701 10700 10699 10698 10697 10695 10694 10693 10692 10690 10689 10687 10686 10684 10683
10707 10705 10704 10703 10701 10700 10698 10697 10694 10692 10689 10686 10683 10680 10677 10674 10671 10669 10668 10664 10661 10659 10655 10651 10651 10652 10652 10654 10654 10655 10656 10657 10658 10660 10661 10663 10665 10668 10670 10673 10676 10680 10682 10684 10687 10688 10690 10692 10693 10695 10696 10697 10699 10700 10701 10701 10702 10702 10703 10703 10703 10703 10703 10703 10702 10702 10702 10701 10700 10699 10699 10698 10697 10696 10694 10693 10692 10690 10690 10688 10687 10686 10684 10683 10681
10702 10700 10699 10697 10696 10695 10693 10691 10689 10686 10683 10680 10677 10673 10671 10667 10664 10662 10660 10656 10653 10651 10648 10644 10643 10644 10645 10648 10649 10649 10651 10651 10652 10654 10656 10658 10660 10663 10665 10667 10671 10674 10676 10679 10682 10684 10686 10688 10690 10691 10692 10693 10695 10696 10697 10697 10698 10699 10699 10699 10700 10700 10700 10699 10699 10699 10698 10698 10697 10696 10696 10695 10694 10693 10692 10691 10689 10688 10687 10686 10685 10683 10682 10681 10679
10697 10696 10694 10693 10692 10690 10688 10686 10684 10681 10678 10675 10671 10668 10666 10662 10659 10656 10653 10650 10646 10643 10641 10637 10634 10635 10636 10638 10640 10643 10645 10645 10647 10650 10652 10654 10656 10658 10660 10663 10666 10669 10671 10674 10678 10680 10682 10684 10686 10687 10688 10689 10690 10692 10693 10693 10694 10695 10695 10696 10696 10696 10696 10696 10696 10695 10695 10694 10694 10693 10692 10691 10691 10690 10690 10688 10687 10686 10684 10684 10682 10681 10680 10679 10677
10693 10691 10690 10688 10687 10686 10683 10681 10679 10676 10673 10671 10667 10663 10661 10658 10654 10651 10647 10643 10639 10636 10633 10630 10627 10626 10627 10629 10631 10634 10636 10638 10642 10646 10648 10650 10651 10653 10656 10659 10662 10664 10666 10669 10672 10675 10678 10679 10681 10682 10683 10685 10686 10687 10688 10689 10690 10691 10691 10692 10692 10692 10692 10692 10692 10692 10692 10691 10690 10690 10689 10688 10687 10687 10687 10686 10684 10683 10682 10681 10680 10678 10677 10676 10675
10688 10686 10685 10684 10683 10681 10679 10677 10674 10672 10669 10666 10663 10659 10656 10652 10650 10646 10642 10637 10633 10629 10626 10623 10620 10619 10619 10621 10624 10626 10629 10633 10637 10640 10642 10645 10647 10650 10652 10655 10658 10660 10662 10665 10668 10671 10673 10675 10676 10678 10679 10680 10681 10682 10684 10685 10686 10686 10687 10688 10688 10688 10689 10689 10689 10688 10688 10687 10687 10686 10685 10684 10684 10683 10683 10682 10681 10680 10679 10678 10677 10676 10674 10673 10672
10683 10682 10681 10680 10679 10677 10674 10672 10670 10667 10665 10662 10658 10654 10651 10648 10645 10642 10637 10632 10627 10624 10620 10616 10614 10613 10612 10614 10617 10621 10624 10628 10631 10634 10637 10641 10644 10647 10649 10651 10654 10656 10658 10662 10664 10667 10669 10671 10672 10673 10675 10676 10677 10678 10679 10681 10681 10682 10683 10683 10684 10684 10684 10684 10684 10684 10684 10683 10683 10683 10682 10681 10680 10680 10679 10679 10678 10677 10676 10675 10674 10673 10671 10670 10669
10678 10677 10676 10675 10674 10672 10670 10668 10666 10663 10660 10658 10654 10651 10647 10644 10641 10638 10632 10627 10622 10618 10615 10611 10608 10607 10606 10608 10611 10616 10620 10624 10627 10630 10634 10638 10641 10643 10645 10648 10650 10652 10655 10658 10661 10663 10665 10666 10668 10670 10671 10672 10673 10673 10675 10676 10677 10678 10678 10679 10679 10680 10680 10680 10680 10680 10679 10679 10679 10679 10678 10677 10677 10676 10675 10675 10674 10674 10673 10672 10670 10669 10668 10667 10666
10673 10672 10671 10670 10669 10668 10666 10663 10661 10658 10656 10654 10651 10647 10643 10640 10638 10634 10628 10622 10618 10614 10610 10607 10604 10602 10602 10603 10607 10613 10617 10622 10626 10629 10632 10635 10638 10640 10642 10644 10646 10649 10652 10654 10657 10659 10660 10662 10665 10667 10667 10667 10668 10669 10671 10672 10673 10674 10674 10674 10674 10675 10675 10675 10675 10675 10675 10675 10675 10674 10674 10674 10673 10672 10672 10671 10670 10670 10669 10668 10667 10666 10665 10664 10663
10668 10667 10666 10665 10664 10662 10661 10659 10656 10654 10652 10650 10647 10644 10640 10637 10634 10631 10625 10619 10615 10610 10606 10604 10601 10599 10599 10601 10606 10612 10617 10621 10624 10627 10630 10632 10634 10637 10639 10641 10643 10645 10647 10651 10653 10654 10656 10658 10661 10662 10663 10663 10664 10665 10667 10668 10669 10669 10669 10669 10670 10670 10670 10671 10671 10671 10670 10670 10670 10670 10670 10669 10669 10668 10668 10667 10666 10665 10665 10665 10664 10663 10661 10660 10659
10664 10662 10661 10660 10658 10657 10656 10654 10652 10649 10648 10646 10644 10640 10636 10633 10630 10627 10622 10617 10613 10608 10605 10602 10600 10598 10599 10602 10607 10612 10616 10619 10622 10624 10627 10629 10631 10634 10636 10638 10640 10641 10644 10647 10649 10650 10652 10654 10656 10657 10658 10659 10660 10660 10661 10662 10663 10664 10664 10664 10665 10665 10665 10666 10666 10666 10666 10665 10665 10665 10665 10665 10665 10664 10664 10663 10662 10661 10661 10661 10659 10659 10658 10656 10656
10659 10658 10657 10655 10654 10652 10651 10649 10647 10645 10643 10642 10640 10637 10634 10630 10628 10624 10620 10616 10612 10608 10605 10602 10600 10600 10602 10605 10609 10613 10616 10618 10619 10621 10624 10626 10629 10631 10633 10636 10638 10639 10641 10644 10645 10646 10648 10650 10651 10652 10653 10654 10655 10655 10656 10656 10657 10659 10658 10657 10659 10659 10659 10660 10661 10661 10661 10661 10660 10660 10660 10660 10660 10660 10659 10659 10658 10657 10657 10656 10655 10654 10654 10653 10652
10654 10653 10652 10650 10649 10647 10646 10645 10643 10641 10640 10639 10637 10635 10631 10628 10625 10622 10618 10615 10612 10609 10606 10604 10603 10603 10605 10608 10610 10613 10615 10616 10618 10620 10623 10625 10627 10629 10631 10633 10635 10637 10638 10640 10642 10643 10644 10646 10647 10647 10647 10649 10650 10652 10652 10652 10652 10653 10652 10651 10652 10653 10654 10655 10655 10656 10656 10655 10655 10655 10655 10655 10655 10655 10654 10655 10654 10653 10653 10652 10651 10649 10649 10648 10647
10649 10647 10646 10645 10644 10643 10641 10640 10639 10638 10636 10635 10634 10632 10629 10625 10623 10620 10617 10614 10611 10609 10607 10606 10605 10606 10607 10609 10611 10612 10614 10615 10617 10619 10621 10623 10625 10626 10628 10629 10631 10633 10634 10636 10638 10638 10639 10641 10642 10642 10643 10645 10646 10648 10649 10648 10648 10649 10647 10646 10646 10648 10649 10649 10649 10650 10650 10649 10649 10649 10649 10650 10650 10650 10650 10650 10650 10649 10648 10648 10647 10645 10644 10643 10642
10643 10642 10641 10640 10639 10638 10637 10636 10635 10634 10632 10631 10630 10629 10627 10623 10620 10618 10615 10612 10611 10609 10607 10606 10606 10607 10608 10609 10610 10611 10612 10613 10615 10617 10619 10621 10622 10623 10624 10624 10626 10628 10629 10631 10633 10634 10635 10636 10637 10638 10640 10641 10643 10644 10645 10645 10645 10644 10643 10641 10641 10642 10642 10642 10643 10643 10643 10643 10643 10643 10644 10644 10644 10645 10645 10645 10644 10644 10643 10643 10642 10641 10639 10637 10636
10637 10636 10635 10634 10633 10633 10632 10631 10630 10630 10629 10627 10626 10625 10624 10621 10618 10615 10613 10611 10609 10608 10607 10606 10606 10606 10607 10607 10608 10609 10610 10611 10613 10615 10616 10618 10619 10620 10621 10621 10623 10625 10626 10627 10629 10629 10630 10632 10633 10634 10636 10637 10639 10640 10640 10640 10640 10639 10638 10636 10635 10636 10636 10636 10636 10637 10637 10637 10637 10637 10638 10638 10639 10639 10639 10639 10639 10639 10638 10638 10637 10636 10634 10633 10631
10631 10631 10630 10629 10628 10628 10627 10626 10626 10625 10624 10623 10622 10621 10620 10618 10616 10613 10611 10609 10607 10607 10606 10605 10605 10605 10605 10606 10606 10607 10608 10609 10611 10612 10613 10614 10616 10617 10618 10619 10620 10620 10622 10623 10624 10625 10626 10628 10629 10630 10632 10633 10634 10635 10635 10635 10635 10633 10632 10631 10630 10631 10631 10631 10630 10631 10631 10631 10632 10632 10631 10631 10633 10633 10633 10633 10633 10634 10633 10633 10632 10631 10629 10628 10626
10625 10625 10624 10624 10623 10622 10622 10621 10621 10621 10620 10619 10618 10617 10616 10615 10613 10611 10609 10607 10605 10604 10604 10603 10603 10602 10603 10603 10604 10604 10605 10606 10607 10608 10609 10610 10611 10612 10614 10615 10615 10615 10617 10618 10619 10621 10622 10623 10625 10626 10627 10628 10629 10629 10629 10629 10629 10627 10626 10626 10626 10626 10626 10625 10624 10624 10625 10625 10625 10625 10624 10624 10626 10627 10627 10626 10627 10628 10628 10627 10627 10626 10624 10623 10621
10620 10620 10619 10618 10618 10617 10617 10616 10616 10616 10616 10615 10614 10612 10611 10610 10609 10608 10606 10604 10603 10601 10601 10600 10600 10600 10600 10600 10600 10601 10601 10602 10602 10603 10604 10605 10606 10607 10608 10609 10609 10610 10612 10613 10615 10617 10618 10618 10619 10620 10621 10622 10623 10623 10624 10623 10622 10621 10621 10621 10621 10621 10621 10620 10618 10618 10618 10617 10616 10617 10617 10617 10618 10619 10619 10618 10619 10620 10620 10620 10620 10620 10618 10617 10615
10616 10615 10614 10613 10613 10612 10611 10611 10610 10610 10610 10610 10609 10608 10607 10606 10605 10604 10603 10601 10600 10598 10597 10597 10597 10597 10596 10596 10596 10596 10597 10597 10598 10598 10600 10601 10601 10602 10603 10603 10604 10605 10606 10608 10610 10612 10613 10613 10613 10613 10614 10615 10616 10617 10617 10616 10616 10616 10615 10616 10616 10615 10614 10614 10612 10612 10612 10610 10608 10607 10607 10608 10609 10610 10611 10610 10610 10611 10612 10612 10612 10612 10612 10610 10609
10611 10610 10609 10609 10608 10607 10606 10606 10605 10605 10605 10605 10604 10603 10602 10601 10600 10600 10599 10598 10596 10595 10594 10593 10593 10593 10592 10592 10592 10592 10592 10593 10593 10594 10595 10595 10596 10597 10597 10598 10599 10600 10601 10603 10604 10606 10607 10608 10608 10609 10608 10608 10609 10611 10611 10610 10609 10610 10609 10609 10609 10609 10609 10608 10606 10606 10606 10605 10603 10601 10599 10598 10598 10600 10602 10603 10603 10603 10604 10604 10604 10604 10604 10603 10601
10606 10605 10604 10604 10603 10602 10601 10600 10599 10599 10599 10599 10598 10598 10597 10596 10595 10595 10594 10593 10592 10591 10590 10589 10589 10589 10588 10588 10588 10588 10588 10588 10588 10589 10590 10590 10591 10592 10593 10593 10594 10595 10596 10598 10598 10600 10601 10603 10604 10604 10603 10602 10603 10605 10605 10604 10603 10602 10601 10601 10602 10602 10603 10603 10601 10599 10599 10598 10597 10596 10593 10591 10591 10591 10592 10594 10595 10595 10595 10595 10595 10595 10595 10594 10593
10601 10600 10599 10598 10598 10597 10596 10595 10594 10593 10593 10593 10592 10592 10591 10591 10590 10589 10589 10588 10587 10587 10586 10585 10584 10584 10584 10583 10583 10583 10583 10582 10583 10584 10584 10585 10586 10586 10587 10588 10589 10590 10591 10592 10592 10593 10596 10597 10597 10598 10597 10596 10596 10597 10598 10597 10595 10594 10593 10593 10595 10596 10596 10596 10595 10593 10592 10591 10589 10588 10587 10586 10585 10585 10585 10586 10586 10586 10586 10586 10586 10586 10586 10586 10585
10596 10595 10594 10593 10592 10591 10590 10589 10588 10587 10587 10587 10586 10586 10585 10585 10584 10583 10583 10582 10581 10581 10581 10580 10579 10579 10578 10578 10578 10577 10577 10577 10577 10578 10579 10579 10580 10580 10581 10582 10583 10584 10585 10585 10586 10586 10589 10590 10590 10591 10591 10589 10588 10589 10589 10588 10587 10588 10587 10586 10587 10588 10588 10588 10587 10585 10584 10583 10581 10580 10580 10579 10579 10579 10578 10578 10578 10577 10577 10578 10578 10578 10578 10577 10576
10590 10589 10588 10586 10585 10584 10584 10583 10582 10581 10581 10580 10580 10579 10579 10578 10578 10577 10576 10576 10575 10575 10574 10574 10574 10573 10573 10572 10572 10571 10571 10571 10571 10571 10572 10573 10573 10574 10575 10575 10576 10577 10578 10579 10579 10579 10580 10582 10582 10583 10583 10582 10581 10581 10581 10580 10580 10580 10580 10580 10581 10581 10581 10581 10579 10578 10576 10574 10573 10573 10572 10572 10572 10572 10571 10570 10570 10570 10570 10570 10570 10570 10569 10568 10567
10584 10582 10581 10580 10579 10578 10577 10576 10575 10574 10573 10573 10572 10572 10571 10571 10570 10570 10570 10569 10568 10568 10567 10567 10567 10567 10566 10566 10566 10565 10564 10564 10564 10564 10565 10565 10566 10567 10567 10568 10569 10570 10571 10571 10572 10572 10572 10573 10574 10574 10575 10574 10574 10574 10574 10573 10573 10573 10573 10574 10574 10574 10574 10573 10572 10571 10568 10565 10565 10566 10565 10564 10564 10563 10562 10561 10561 10561 10562 10562 10562 10561 10560 10560 10559
10577 10576 10574 10573 10571 10571 10570 10569 10568 10567 10566 10565 10564 10564 10563 10563 10563 10562 10562 10562 10561 10561 10560 10560 10559 10559 10559 10559 10559 10559 10558 10557 10556 10556 10557 10557 10558 10559 10559 10560 10561 10562 10563 10563 10564 10564 10563 10564 10566 10566 10566 10566 10566 10566 10566 10566 10566 10566 10566 10566 10567 10567 10566 10565 10564 10563 10559 10557 10558 10559 10558 10557 10555 10554 10553 10552 10552 10552 10552 10552 10552 10552 10551 10551 10550
10571 10569 10568 10566 10564 10563 10562 10561 10560 10559 10558 10557 10556 10556 10555 10555 10555 10554 10554 10554 10554 10553 10552 10552 10552 10552 10552 10551 10551 10551 10551 10550 10549 10548 10548 10549 10549 10550 10550 10551 10552 10553 10554 10554 10555 10555 10555 10556 10557 10558 10558 10558 10557 10557 10558 10558 10559 10559 10559 10559 10559 10558 10557 10555 10554 10552 10550 10550 10551 10551 10551 10550 10548 10546 10545 10544 10544 10544 10544 10544 10543 10543 10542 10541 10541
10565 10563 10562 10560 10558 10556 10554 10553 10552 10551 10550 10549 10549 10548 10547 10547 10546 10546 10546 10545 10545 10545 10544 10544 10544 10543 10543 10543 10543 10543 10543 10542 10542 10541 10540 10540 10540 10540 10541 10541 10542 10543 10544 10544 10545 10546 10546 10546 10547 10548 10549 10549 10549 10549 10549 10550 10550 10551 10551 10551 10550 10549 10547 10546 10545 10543 10542 10542 10542 10542 10542 10541 10539 10538 10537 10536 10536 10536 10536 10536 10535 10534 10533 10532 10531
10559 10557 10556 10554 10552 10550 10548 10546 10545 10544 10542 10541 10541 10540 10539 10539 10538 10538 10537 10537 10536 10536 10536 10535 10535 10534 10534 10534 10534 10534 10534 10533 10533 10532 10532 10531 10531 10531 10530 10531 10532 10532 10533 10533 10534 10535 10536 10536 10536 10537 10537 10538 10538 10538 10539 10540 10541 10542 10542 10542 10541 10540 10538 10537 10536 10535 10534 10533 10532 10531 10532 10530 10528 10527 10527 10526 10526 10527 10527 10527 10526 10525 10523 10522 10522
10553 10551 10549 10547 10545 10543 10541 10539 10538 10536 10535 10534 10533 10532 10531 10530 10529 10529 10528 10528 10527 10527 10527 10526 10525 10525 10524 10524 10524 10524 10524 10524 10524 10523 10522 10522 10521 10521 10520 10520 10521 10522 10522 10522 10523 10524 10524 10525 10525 10525 10526 10526 10527 10527 10527 10529 10531 10532 10532 10532 10531 10529 10529 10529 10528 10526 10525 10523 10522 10521 10520 10519 10517 10516 10515 10515 10516 10516 10516 10516 10515 10514 10513 10512 10511
10546 10544 10543 10541 10539 10537 10535 10533 10531 10529 10527 10526 10525 10524 10523 10522 10521 10520 10519 10519 10518 10518 10517 10516 10515 10515 10514 10514 10513 10513 10513 10513 10513 10513 10512 10512 10511 10510 10509 10509 10510 10511 10511 10511 10511 10511 10512 10513 10513 10513 10514 10515 10516 10516 10516 10517 10519 10521 10522 10522 10520 10518 10519 10519 10518 10516 10515 10513 10512 10511 10510 10508 10506 10504 10503 10504 10505 10505 10505 10505 10504 10503 10502 10501 10500
10540 10538 10536 10534 10532 10530 10528 10526 10524 10522 10520 10519 10517 10516 10515 10513 10512 10511 10510 10509 10509 10508 10507 10506 10505 10504 10504 10503 10502 10502 10502 10501 10501 10501 10500 10500 10500 10499 10498 10498 10498 10499 10499 10499 10499 10499 10500 10501 10501 10501 10502 10503 10504 10505 10505 10506 10507 10509 10511 10511 10509 10508 10509 10509 10507 10505 10505 10504 10502 10502 10501 10499 10496 10494 10492 10492 10493 10493 10493 10493 10492 10491 10490 10489 10488